Datum;Uhrzeit;Grugatrasse_Ruettenscheid_West;Grugatrasse_Ruhr_Ost;Huyssenallee_Ruettenscheid_Sued;Huyssenallee_Stadtkern_Nord
01.07.2020;00:00;0;0;8;4
01.07.2020;01:00;0;0;0;1
01.07.2020;02:00;0;0;0;0
01.07.2020;03:00;1;0;0;0
01.07.2020;04:00;1;2;0;0
01.07.2020;05:00;8;2;4;4
01.07.2020;06:00;24;8;7;8
01.07.2020;07:00;28;9;8;14
01.07.2020;08:00;23;9;9;19
01.07.2020;09:00;13;8;5;11
01.07.2020;10:00;7;3;3;2
01.07.2020;11:00;3;4;6;9
01.07.2020;12:00;13;15;9;12
01.07.2020;13:00;14;14;9;13
01.07.2020;14:00;12;29;16;15
01.07.2020;15:00;27;31;17;14
01.07.2020;16:00;38;35;19;13
01.07.2020;17:00;31;40;20;19
01.07.2020;18:00;26;32;21;16
01.07.2020;19:00;11;11;10;11
01.07.2020;20:00;10;20;8;5
01.07.2020;21:00;16;14;8;5
01.07.2020;22:00;6;6;1;2
01.07.2020;23:00;3;1;4;1
02.07.2020;00:00;0;0;0;1
02.07.2020;01:00;0;0;1;0
02.07.2020;02:00;3;0;0;0
02.07.2020;03:00;0;2;0;1
02.07.2020;04:00;3;0;0;0
02.07.2020;05:00;24;8;4;13
02.07.2020;06:00;67;22;10;15
02.07.2020;07:00;100;44;25;71
02.07.2020;08:00;71;51;16;67
02.07.2020;09:00;56;56;8;24
02.07.2020;10:00;59;60;19;32
02.07.2020;11:00;69;100;17;20
02.07.2020;12:00;79;56;25;22
02.07.2020;13:00;68;69;28;18
02.07.2020;14:00;48;59;14;31
02.07.2020;15:00;86;73;41;42
02.07.2020;16:00;79;117;39;30
02.07.2020;17:00;96;101;53;24
02.07.2020;18:00;49;71;38;25
02.07.2020;19:00;49;51;25;12
02.07.2020;20:00;37;29;12;8
02.07.2020;21:00;22;16;7;8
02.07.2020;22:00;10;12;9;4
02.07.2020;23:00;1;7;5;7
03.07.2020;00:00;1;1;1;3
03.07.2020;01:00;2;0;0;1
03.07.2020;02:00;0;0;0;0
03.07.2020;03:00;0;1;0;0
03.07.2020;04:00;1;2;0;1
03.07.2020;05:00;17;6;4;6
03.07.2020;06:00;64;27;10;22
03.07.2020;07:00;82;47;14;49
03.07.2020;08:00;60;33;13;51
03.07.2020;09:00;40;56;7;33
03.07.2020;10:00;62;49;9;18
03.07.2020;11:00;76;47;15;28
03.07.2020;12:00;55;75;22;23
03.07.2020;13:00;68;94;30;34
03.07.2020;14:00;69;122;29;30
03.07.2020;15:00;116;128;32;37
03.07.2020;16:00;117;133;41;34
03.07.2020;17:00;109;112;39;25
03.07.2020;18:00;92;142;35;30
03.07.2020;19:00;118;63;15;19
03.07.2020;20:00;70;51;11;11
03.07.2020;21:00;31;32;8;12
03.07.2020;22:00;20;9;7;5
03.07.2020;23:00;15;11;4;1
04.07.2020;00:00;9;5;2;8
04.07.2020;01:00;9;5;6;5
04.07.2020;02:00;1;1;0;3
04.07.2020;03:00;0;0;2;1
04.07.2020;04:00;0;2;0;0
04.07.2020;05:00;2;4;1;0
04.07.2020;06:00;9;6;6;6
04.07.2020;07:00;10;10;2;4
04.07.2020;08:00;18;18;3;13
04.07.2020;09:00;36;42;4;11
04.07.2020;10:00;55;71;15;24
04.07.2020;11:00;84;103;13;19
04.07.2020;12:00;109;88;15;16
04.07.2020;13:00;72;69;20;27
04.07.2020;14:00;87;71;20;31
04.07.2020;15:00;86;76;25;27
04.07.2020;16:00;103;75;12;16
04.07.2020;17:00;81;58;6;15
04.07.2020;18:00;86;64;21;13
04.07.2020;19:00;45;28;7;10
04.07.2020;20:00;19;13;5;5
04.07.2020;21:00;11;10;10;7
04.07.2020;22:00;7;6;7;3
04.07.2020;23:00;4;6;6;1
05.07.2020;00:00;0;3;4;5
05.07.2020;01:00;0;1;2;1
05.07.2020;02:00;2;0;2;2
05.07.2020;03:00;0;0;0;1
05.07.2020;04:00;0;2;0;0
05.07.2020;05:00;1;1;1;0
05.07.2020;06:00;2;3;1;1
05.07.2020;07:00;1;4;0;1
05.07.2020;08:00;11;10;0;6
05.07.2020;09:00;15;22;1;4
05.07.2020;10:00;39;52;5;4
05.07.2020;11:00;28;56;14;10
05.07.2020;12:00;54;50;14;11
05.07.2020;13:00;52;33;11;18
05.07.2020;14:00;73;56;10;7
05.07.2020;15:00;58;52;15;13
05.07.2020;16:00;86;57;11;13
05.07.2020;17:00;56;58;8;14
05.07.2020;18:00;53;61;11;16
05.07.2020;19:00;62;47;8;17
05.07.2020;20:00;32;26;12;9
05.07.2020;21:00;28;8;6;6
05.07.2020;22:00;5;8;4;4
05.07.2020;23:00;5;3;4;4
06.07.2020;00:00;5;0;1;0
06.07.2020;01:00;0;0;0;0
06.07.2020;02:00;0;1;1;1
06.07.2020;03:00;0;0;0;0
06.07.2020;04:00;0;2;0;0
06.07.2020;05:00;20;6;2;4
06.07.2020;06:00;57;24;13;17
06.07.2020;07:00;66;37;14;47
06.07.2020;08:00;69;39;20;65
06.07.2020;09:00;46;39;9;26
06.07.2020;10:00;28;43;9;11
06.07.2020;11:00;30;33;18;20
06.07.2020;12:00;43;33;14;17
06.07.2020;13:00;33;44;15;16
06.07.2020;14:00;28;26;15;15
06.07.2020;15:00;30;56;25;36
06.07.2020;16:00;47;84;45;31
06.07.2020;17:00;56;84;39;20
06.07.2020;18:00;73;63;30;27
06.07.2020;19:00;56;54;30;24
06.07.2020;20:00;37;40;10;11
06.07.2020;21:00;15;19;9;6
06.07.2020;22:00;8;15;10;11
06.07.2020;23:00;3;0;3;1
07.07.2020;00:00;0;1;0;1
07.07.2020;01:00;1;0;0;0
07.07.2020;02:00;0;1;0;0
07.07.2020;03:00;2;0;0;0
07.07.2020;04:00;0;1;0;1
07.07.2020;05:00;23;5;6;7
07.07.2020;06:00;72;28;12;18
07.07.2020;07:00;93;38;19;60
07.07.2020;08:00;80;48;16;67
07.07.2020;09:00;72;66;15;25
07.07.2020;10:00;137;83;14;24
07.07.2020;11:00;91;100;22;20
07.07.2020;12:00;87;87;22;26
07.07.2020;13:00;78;130;23;25
07.07.2020;14:00;81;96;26;28
07.07.2020;15:00;89;99;45;38
07.07.2020;16:00;98;131;56;34
07.07.2020;17:00;118;160;61;38
07.07.2020;18:00;123;95;36;34
07.07.2020;19:00;94;81;27;8
07.07.2020;20:00;76;38;21;17
07.07.2020;21:00;34;18;8;14
07.07.2020;22:00;6;5;4;6
07.07.2020;23:00;1;3;6;1
08.07.2020;00:00;1;1;1;2
08.07.2020;01:00;0;0;1;0
08.07.2020;02:00;0;1;0;1
08.07.2020;03:00;1;1;0;0
08.07.2020;04:00;0;1;0;0
08.07.2020;05:00;7;3;2;3
08.07.2020;06:00;26;6;10;6
08.07.2020;07:00;29;13;10;21
08.07.2020;08:00;22;6;15;31
08.07.2020;09:00;10;15;9;16
08.07.2020;10:00;17;9;12;13
08.07.2020;11:00;12;13;7;10
08.07.2020;12:00;18;7;6;10
08.07.2020;13:00;15;12;11;14
08.07.2020;14:00;18;19;16;21
08.07.2020;15:00;23;27;15;21
08.07.2020;16:00;34;62;25;19
08.07.2020;17:00;42;48;27;27
08.07.2020;18:00;40;41;29;18
08.07.2020;19:00;34;29;14;10
08.07.2020;20:00;30;14;9;9
08.07.2020;21:00;17;15;2;7
08.07.2020;22:00;4;8;8;2
08.07.2020;23:00;1;1;3;3
09.07.2020;00:00;1;0;2;1
09.07.2020;01:00;0;1;1;1
09.07.2020;02:00;0;0;1;0
09.07.2020;03:00;2;0;0;0
09.07.2020;04:00;1;1;0;0
09.07.2020;05:00;11;3;4;2
09.07.2020;06:00;21;6;6;6
09.07.2020;07:00;20;12;8;24
09.07.2020;08:00;36;16;13;36
09.07.2020;09:00;28;23;6;21
09.07.2020;10:00;23;21;6;12
09.07.2020;11:00;23;20;7;12
09.07.2020;12:00;23;31;15;19
09.07.2020;13:00;30;27;23;19
09.07.2020;14:00;40;49;12;22
09.07.2020;15:00;44;59;28;13
09.07.2020;16:00;68;74;17;32
09.07.2020;17:00;70;71;41;33
09.07.2020;18:00;70;78;30;15
09.07.2020;19:00;77;47;13;14
09.07.2020;20:00;41;28;17;12
09.07.2020;21:00;31;27;7;4
09.07.2020;22:00;12;14;3;7
09.07.2020;23:00;8;4;1;1
10.07.2020;00:00;3;1;0;1
10.07.2020;01:00;1;0;1;0
10.07.2020;02:00;0;0;0;0
10.07.2020;03:00;0;0;0;0
10.07.2020;04:00;1;1;0;1
10.07.2020;05:00;12;2;2;3
10.07.2020;06:00;43;16;12;8
10.07.2020;07:00;46;24;13;27
10.07.2020;08:00;38;22;8;36
10.07.2020;09:00;17;21;9;21
10.07.2020;10:00;29;25;6;13
10.07.2020;11:00;30;20;5;18
10.07.2020;12:00;31;31;17;17
10.07.2020;13:00;25;31;30;23
10.07.2020;14:00;39;65;24;36
10.07.2020;15:00;60;93;29;20
10.07.2020;16:00;49;74;20;20
10.07.2020;17:00;39;48;28;23
10.07.2020;18:00;56;67;21;25
10.07.2020;19:00;61;41;24;24
10.07.2020;20:00;44;35;16;9
10.07.2020;21:00;23;23;15;9
10.07.2020;22:00;7;10;4;6
10.07.2020;23:00;5;2;3;8
11.07.2020;00:00;4;3;1;2
11.07.2020;01:00;0;0;3;1
11.07.2020;02:00;1;3;1;4
11.07.2020;03:00;0;1;1;2
11.07.2020;04:00;0;1;0;1
11.07.2020;05:00;7;2;4;0
11.07.2020;06:00;7;3;4;5
11.07.2020;07:00;7;11;2;7
11.07.2020;08:00;15;19;2;11
11.07.2020;09:00;49;65;6;16
11.07.2020;10:00;85;128;17;28
11.07.2020;11:00;126;89;18;45
11.07.2020;12:00;131;168;17;37
11.07.2020;13:00;127;163;21;38
11.07.2020;14:00;176;147;37;38
11.07.2020;15:00;138;151;35;20
11.07.2020;16:00;140;173;18;22
11.07.2020;17:00;147;94;26;17
11.07.2020;18:00;136;80;22;28
11.07.2020;19:00;77;59;19;9
11.07.2020;20:00;39;24;10;5
11.07.2020;21:00;27;19;5;10
11.07.2020;22:00;11;12;3;5
11.07.2020;23:00;6;3;12;6
12.07.2020;00:00;3;4;3;1
12.07.2020;01:00;7;1;0;2
12.07.2020;02:00;1;1;1;1
12.07.2020;03:00;1;0;0;5
12.07.2020;04:00;0;0;0;0
12.07.2020;05:00;3;1;4;2
12.07.2020;06:00;9;2;1;3
12.07.2020;07:00;6;22;0;4
12.07.2020;08:00;30;30;2;12
12.07.2020;09:00;53;88;5;19
12.07.2020;10:00;148;156;13;23
12.07.2020;11:00;183;295;28;34
12.07.2020;12:00;236;219;18;26
12.07.2020;13:00;244;232;19;30
12.07.2020;14:00;228;269;33;34
12.07.2020;15:00;240;236;15;34
12.07.2020;16:00;256;169;15;33
12.07.2020;17:00;201;109;20;14
12.07.2020;18:00;176;77;18;15
12.07.2020;19:00;109;71;13;21
12.07.2020;20:00;67;35;25;20
12.07.2020;21:00;25;24;10;12
12.07.2020;22:00;12;6;10;1
12.07.2020;23:00;5;0;1;0
13.07.2020;00:00;1;0;1;3
13.07.2020;01:00;0;1;0;0
13.07.2020;02:00;1;0;0;1
13.07.2020;03:00;0;1;0;0
13.07.2020;04:00;1;0;0;1
13.07.2020;05:00;26;10;6;7
13.07.2020;06:00;86;36;13;26
13.07.2020;07:00;104;50;19;74
13.07.2020;08:00;66;38;17;62
13.07.2020;09:00;60;59;15;39
13.07.2020;10:00;94;103;12;27
13.07.2020;11:00;117;161;18;19
13.07.2020;12:00;127;144;22;20
13.07.2020;13:00;150;124;35;21
13.07.2020;14:00;158;163;27;31
13.07.2020;15:00;145;180;28;38
13.07.2020;16:00;148;192;60;38
13.07.2020;17:00;161;225;58;33
13.07.2020;18:00;184;169;55;29
13.07.2020;19:00;131;123;29;22
13.07.2020;20:00;90;71;18;17
13.07.2020;21:00;69;34;12;14
13.07.2020;22:00;28;15;4;7
13.07.2020;23:00;3;9;2;2
14.07.2020;00:00;0;0;1;0
14.07.2020;01:00;0;0;0;2
14.07.2020;02:00;0;1;1;0
14.07.2020;03:00;0;0;0;0
14.07.2020;04:00;2;2;0;1
14.07.2020;05:00;24;8;6;6
14.07.2020;06:00;62;23;14;8
14.07.2020;07:00;90;35;19;59
14.07.2020;08:00;77;47;15;53
14.07.2020;09:00;60;49;8;33
14.07.2020;10:00;80;65;16;36
14.07.2020;11:00;72;102;16;20
14.07.2020;12:00;96;80;21;24
14.07.2020;13:00;68;77;27;19
14.07.2020;14:00;67;89;26;20
14.07.2020;15:00;62;94;25;29
14.07.2020;16:00;62;93;37;31
14.07.2020;17:00;61;85;56;28
14.07.2020;18:00;42;42;19;11
14.07.2020;19:00;30;22;22;16
14.07.2020;20:00;17;20;18;11
14.07.2020;21:00;12;14;9;4
14.07.2020;22:00;6;6;7;5
14.07.2020;23:00;1;3;3;3
15.07.2020;00:00;1;0;1;2
15.07.2020;01:00;0;0;1;1
15.07.2020;02:00;0;1;0;2
15.07.2020;03:00;0;0;0;0
15.07.2020;04:00;0;3;0;0
15.07.2020;05:00;19;8;5;5
15.07.2020;06:00;51;20;12;16
15.07.2020;07:00;74;30;16;56
15.07.2020;08:00;47;38;21;64
15.07.2020;09:00;62;40;12;36
15.07.2020;10:00;59;44;5;14
15.07.2020;11:00;67;58;19;24
15.07.2020;12:00;62;87;22;24
15.07.2020;13:00;62;80;20;24
15.07.2020;14:00;91;81;24;39
15.07.2020;15:00;87;104;33;40
15.07.2020;16:00;103;128;48;37
15.07.2020;17:00;111;119;50;34
15.07.2020;18:00;107;135;46;27
15.07.2020;19:00;108;79;24;17
15.07.2020;20:00;75;48;19;9
15.07.2020;21:00;36;31;13;13
15.07.2020;22:00;13;7;4;8
15.07.2020;23:00;8;2;5;2
16.07.2020;00:00;2;2;2;0
16.07.2020;01:00;0;0;2;1
16.07.2020;02:00;0;0;0;0
16.07.2020;03:00;0;0;0;3
16.07.2020;04:00;0;0;0;0
16.07.2020;05:00;12;8;6;5
16.07.2020;06:00;45;16;8;14
16.07.2020;07:00;57;29;9;42
16.07.2020;08:00;39;16;14;37
16.07.2020;09:00;26;13;7;20
16.07.2020;10:00;23;18;3;13
16.07.2020;11:00;16;23;9;13
16.07.2020;12:00;22;25;1;11
16.07.2020;13:00;20;26;16;14
16.07.2020;14:00;23;24;15;27
16.07.2020;15:00;32;41;19;14
16.07.2020;16:00;33;62;39;19
16.07.2020;17:00;32;50;30;22
16.07.2020;18:00;29;54;22;14
16.07.2020;19:00;33;34;13;15
16.07.2020;20:00;17;19;13;11
16.07.2020;21:00;28;13;4;3
16.07.2020;22:00;6;6;7;5
16.07.2020;23:00;2;1;5;4
17.07.2020;00:00;1;0;4;0
17.07.2020;01:00;2;1;0;0
17.07.2020;02:00;1;0;1;0
17.07.2020;03:00;0;1;0;1
17.07.2020;04:00;3;2;0;0
17.07.2020;05:00;18;8;6;4
17.07.2020;06:00;46;28;9;13
17.07.2020;07:00;65;28;12;46
17.07.2020;08:00;59;31;12;46
17.07.2020;09:00;51;37;10;21
17.07.2020;10:00;51;52;15;30
17.07.2020;11:00;59;83;14;29
17.07.2020;12:00;83;83;27;24
17.07.2020;13:00;97;106;45;40
17.07.2020;14:00;102;130;29;31
17.07.2020;15:00;162;143;14;31
17.07.2020;16:00;104;138;51;36
17.07.2020;17:00;105;124;40;27
17.07.2020;18:00;116;92;27;16
17.07.2020;19:00;98;76;27;17
17.07.2020;20:00;57;37;16;7
17.07.2020;21:00;32;19;6;14
17.07.2020;22:00;33;16;8;10
17.07.2020;23:00;12;5;4;7
18.07.2020;00:00;11;6;5;6
18.07.2020;01:00;4;3;1;2
18.07.2020;02:00;0;1;0;1
18.07.2020;03:00;0;2;1;1
18.07.2020;04:00;3;1;0;2
18.07.2020;05:00;4;5;2;4
18.07.2020;06:00;11;6;1;4
18.07.2020;07:00;12;16;4;6
18.07.2020;08:00;21;19;3;17
18.07.2020;09:00;43;73;6;17
18.07.2020;10:00;97;107;14;25
18.07.2020;11:00;143;177;16;31
18.07.2020;12:00;162;193;32;32
18.07.2020;13:00;170;183;24;32
18.07.2020;14:00;193;198;34;44
18.07.2020;15:00;208;159;36;46
18.07.2020;16:00;217;140;38;34
18.07.2020;17:00;180;120;40;29
18.07.2020;18:00;141;98;38;19
18.07.2020;19:00;82;64;12;16
18.07.2020;20:00;83;42;10;12
18.07.2020;21:00;51;30;8;15
18.07.2020;22:00;23;14;6;15
18.07.2020;23:00;14;3;3;4
19.07.2020;00:00;12;5;8;2
19.07.2020;01:00;8;7;2;4
19.07.2020;02:00;2;0;3;4
19.07.2020;03:00;5;3;0;0
19.07.2020;04:00;3;2;0;2
19.07.2020;05:00;3;0;1;1
19.07.2020;06:00;8;14;1;3
19.07.2020;07:00;18;29;1;5
19.07.2020;08:00;24;30;3;13
19.07.2020;09:00;72;81;11;16
19.07.2020;10:00;154;147;12;24
19.07.2020;11:00;158;200;19;24
19.07.2020;12:00;233;280;17;19
19.07.2020;13:00;253;246;28;32
19.07.2020;14:00;283;197;32;21
19.07.2020;15:00;193;187;13;27
19.07.2020;16:00;208;145;20;28
19.07.2020;17:00;198;152;20;22
19.07.2020;18:00;183;160;34;10
19.07.2020;19:00;98;82;21;14
19.07.2020;20:00;81;55;16;16
19.07.2020;21:00;51;32;11;15
19.07.2020;22:00;13;10;3;4
19.07.2020;23:00;6;6;2;1
20.07.2020;00:00;0;0;1;0
20.07.2020;01:00;0;0;0;2
20.07.2020;02:00;0;0;0;0
20.07.2020;03:00;0;1;0;0
20.07.2020;04:00;3;1;1;1
20.07.2020;05:00;16;5;5;2
20.07.2020;06:00;27;9;6;6
20.07.2020;07:00;44;24;9;34
20.07.2020;08:00;52;23;14;44
20.07.2020;09:00;32;23;8;30
20.07.2020;10:00;41;63;12;23
20.07.2020;11:00;45;77;22;23
20.07.2020;12:00;50;72;14;20
20.07.2020;13:00;52;68;24;22
20.07.2020;14:00;73;96;17;37
20.07.2020;15:00;113;123;25;36
20.07.2020;16:00;104;139;39;30
20.07.2020;17:00;131;144;46;32
20.07.2020;18:00;141;136;40;23
20.07.2020;19:00;94;80;22;7
20.07.2020;20:00;88;64;17;11
20.07.2020;21:00;46;21;2;12
20.07.2020;22:00;18;12;3;9
20.07.2020;23:00;1;3;2;2
21.07.2020;00:00;2;0;1;1
21.07.2020;01:00;0;0;0;0
21.07.2020;02:00;0;0;0;0
21.07.2020;03:00;2;1;0;0
21.07.2020;04:00;2;1;0;1
21.07.2020;05:00;30;11;3;5
21.07.2020;06:00;71;22;16;20
21.07.2020;07:00;111;52;18;71
21.07.2020;08:00;79;57;21;76
21.07.2020;09:00;64;42;13;31
21.07.2020;10:00;68;98;6;24
21.07.2020;11:00;114;151;18;28
21.07.2020;12:00;103;113;27;22
21.07.2020;13:00;123;113;22;28
21.07.2020;14:00;101;141;35;27
21.07.2020;15:00;146;169;41;43
21.07.2020;16:00;124;180;61;31
21.07.2020;17:00;169;179;58;49
21.07.2020;18:00;149;161;57;33
21.07.2020;19:00;144;110;29;21
21.07.2020;20:00;85;51;19;15
21.07.2020;21:00;61;38;15;16
21.07.2020;22:00;12;11;9;9
21.07.2020;23:00;0;3;7;11
22.07.2020;00:00;0;0;0;3
22.07.2020;01:00;0;1;1;0
22.07.2020;02:00;0;0;0;1
22.07.2020;03:00;0;0;0;0
22.07.2020;04:00;2;4;1;0
22.07.2020;05:00;24;9;5;4
22.07.2020;06:00;56;30;13;19
22.07.2020;07:00;102;46;19;71
22.07.2020;08:00;81;50;20;80
22.07.2020;09:00;58;63;14;41
22.07.2020;10:00;106;94;13;21
22.07.2020;11:00;132;126;9;20
22.07.2020;12:00;95;123;16;34
22.07.2020;13:00;125;103;30;20
22.07.2020;14:00;106;134;12;28
22.07.2020;15:00;144;189;12;41
22.07.2020;16:00;145;169;11;27
22.07.2020;17:00;166;192;38;41
22.07.2020;18:00;135;157;38;35
22.07.2020;19:00;123;97;44;25
22.07.2020;20:00;81;63;16;10
22.07.2020;21:00;51;41;10;6
22.07.2020;22:00;19;18;9;8
22.07.2020;23:00;3;1;3;5
23.07.2020;00:00;1;3;0;0
23.07.2020;01:00;4;0;1;0
23.07.2020;02:00;0;0;0;1
23.07.2020;03:00;0;1;0;1
23.07.2020;04:00;2;3;1;0
23.07.2020;05:00;22;9;3;2
23.07.2020;06:00;62;26;15;24
23.07.2020;07:00;95;46;12;74
23.07.2020;08:00;74;36;17;50
23.07.2020;09:00;68;48;13;33
23.07.2020;10:00;103;102;8;28
23.07.2020;11:00;131;130;19;21
23.07.2020;12:00;94;157;13;19
23.07.2020;13:00;113;126;26;14
23.07.2020;14:00;138;123;34;24
23.07.2020;15:00;155;179;44;32
23.07.2020;16:00;180;215;62;47
23.07.2020;17:00;212;192;56;38
23.07.2020;18:00;157;198;44;44
23.07.2020;19:00;144;125;31;17
23.07.2020;20:00;127;63;13;12
23.07.2020;21:00;80;57;19;6
23.07.2020;22:00;26;23;8;8
23.07.2020;23:00;4;3;2;9
24.07.2020;00:00;4;1;1;2
24.07.2020;01:00;0;0;1;0
24.07.2020;02:00;0;0;1;0
24.07.2020;03:00;0;0;0;1
24.07.2020;04:00;1;2;0;0
24.07.2020;05:00;17;7;4;3
24.07.2020;06:00;59;15;12;19
24.07.2020;07:00;85;37;8;47
24.07.2020;08:00;61;39;14;52
24.07.2020;09:00;46;54;8;27
24.07.2020;10:00;70;72;10;25
24.07.2020;11:00;77;64;14;23
24.07.2020;12:00;82;78;29;43
24.07.2020;13:00;77;92;40;13
24.07.2020;14:00;77;105;28;40
24.07.2020;15:00;84;122;47;34
24.07.2020;16:00;86;115;41;35
24.07.2020;17:00;111;81;49;27
24.07.2020;18:00;53;63;35;19
24.07.2020;19:00;60;48;20;10
24.07.2020;20:00;42;44;9;16
24.07.2020;21:00;39;13;6;11
24.07.2020;22:00;8;21;6;12
24.07.2020;23:00;26;5;2;3
25.07.2020;00:00;2;6;4;5
25.07.2020;01:00;3;6;2;4
25.07.2020;02:00;1;2;0;1
25.07.2020;03:00;1;1;1;2
25.07.2020;04:00;0;0;0;1
25.07.2020;05:00;3;4;1;1
25.07.2020;06:00;4;4;2;4
25.07.2020;07:00;11;19;5;10
25.07.2020;08:00;10;28;5;11
25.07.2020;09:00;43;72;6;14
25.07.2020;10:00;83;89;8;15
25.07.2020;11:00;134;132;16;28
25.07.2020;12:00;115;123;22;32
25.07.2020;13:00;126;119;29;37
25.07.2020;14:00;105;110;27;27
25.07.2020;15:00;108;95;38;25
25.07.2020;16:00;116;104;22;25
25.07.2020;17:00;119;55;19;26
25.07.2020;18:00;71;40;12;16
25.07.2020;19:00;52;26;13;2
25.07.2020;20:00;58;27;12;14
25.07.2020;21:00;26;22;11;12
25.07.2020;22:00;5;8;6;7
25.07.2020;23:00;4;6;2;6
26.07.2020;00:00;6;2;4;1
26.07.2020;01:00;1;2;0;5
26.07.2020;02:00;4;0;1;3
26.07.2020;03:00;0;0;0;0
26.07.2020;04:00;0;0;1;0
26.07.2020;05:00;2;1;1;0
26.07.2020;06:00;1;5;0;0
26.07.2020;07:00;5;5;3;2
26.07.2020;08:00;12;12;2;2
26.07.2020;09:00;25;19;4;8
26.07.2020;10:00;41;55;7;21
26.07.2020;11:00;72;86;15;18
26.07.2020;12:00;130;100;20;18
26.07.2020;13:00;93;136;17;21
26.07.2020;14:00;149;155;15;26
26.07.2020;15:00;166;148;20;20
26.07.2020;16:00;171;151;14;7
26.07.2020;17:00;138;123;23;10
26.07.2020;18:00;106;81;15;12
26.07.2020;19:00;101;64;15;10
26.07.2020;20:00;43;22;13;8
26.07.2020;21:00;32;7;5;11
26.07.2020;22:00;3;4;5;7
26.07.2020;23:00;2;2;3;3
27.07.2020;00:00;1;0;0;1
27.07.2020;01:00;0;2;1;0
27.07.2020;02:00;0;0;0;0
27.07.2020;03:00;0;1;0;0
27.07.2020;04:00;0;2;0;0
27.07.2020;05:00;25;4;5;2
27.07.2020;06:00;51;25;13;18
27.07.2020;07:00;105;48;21;64
27.07.2020;08:00;80;27;17;64
27.07.2020;09:00;48;43;9;26
27.07.2020;10:00;47;48;17;23
27.07.2020;11:00;38;42;11;10
27.07.2020;12:00;28;47;14;17
27.07.2020;13:00;50;68;14;18
27.07.2020;14:00;56;64;25;29
27.07.2020;15:00;81;92;33;34
27.07.2020;16:00;81;155;54;27
27.07.2020;17:00;111;155;47;30
27.07.2020;18:00;111;100;42;25
27.07.2020;19:00;84;92;24;24
27.07.2020;20:00;87;40;13;12
27.07.2020;21:00;26;16;8;10
27.07.2020;22:00;14;5;6;2
27.07.2020;23:00;3;5;2;4
28.07.2020;00:00;2;3;6;4
28.07.2020;01:00;0;1;0;2
28.07.2020;02:00;0;0;1;0
28.07.2020;03:00;0;0;0;0
28.07.2020;04:00;0;3;0;0
28.07.2020;05:00;30;6;7;4
28.07.2020;06:00;63;18;13;22
28.07.2020;07:00;98;46;17;52
28.07.2020;08:00;81;35;11;60
28.07.2020;09:00;68;40;5;27
28.07.2020;10:00;74;57;14;28
28.07.2020;11:00;82;97;25;14
28.07.2020;12:00;76;59;40;25
28.07.2020;13:00;81;98;25;19
28.07.2020;14:00;97;118;24;31
28.07.2020;15:00;105;127;33;28
28.07.2020;16:00;83;165;44;32
28.07.2020;17:00;113;152;60;44
28.07.2020;18:00;127;150;51;32
28.07.2020;19:00;90;98;22;15
28.07.2020;20:00;75;57;23;10
28.07.2020;21:00;52;26;8;7
28.07.2020;22:00;11;15;5;11
28.07.2020;23:00;2;0;4;0
29.07.2020;00:00;1;1;1;1
29.07.2020;01:00;0;0;0;0
29.07.2020;02:00;0;0;0;1
29.07.2020;03:00;1;0;0;0
29.07.2020;04:00;0;2;1;1
29.07.2020;05:00;27;4;4;4
29.07.2020;06:00;70;34;13;22
29.07.2020;07:00;103;45;18;65
29.07.2020;08:00;104;36;19;68
29.07.2020;09:00;61;57;9;35
29.07.2020;10:00;79;106;17;22
29.07.2020;11:00;126;122;20;29
29.07.2020;12:00;102;107;23;27
29.07.2020;13:00;103;129;30;26
29.07.2020;14:00;105;118;36;21
29.07.2020;15:00;151;154;35;41
29.07.2020;16:00;161;183;46;34
29.07.2020;17:00;145;188;64;36
29.07.2020;18:00;133;176;47;27
29.07.2020;19:00;135;98;24;17
29.07.2020;20:00;107;79;12;14
29.07.2020;21:00;48;41;15;10
29.07.2020;22:00;20;19;13;10
29.07.2020;23:00;5;5;3;3
30.07.2020;00:00;2;3;1;2
30.07.2020;01:00;1;2;0;0
30.07.2020;02:00;1;0;0;0
30.07.2020;03:00;1;1;1;1
30.07.2020;04:00;0;2;1;0
30.07.2020;05:00;31;6;4;6
30.07.2020;06:00;53;32;9;24
30.07.2020;07:00;102;44;19;71
30.07.2020;08:00;110;53;20;69
30.07.2020;09:00;76;75;14;32
30.07.2020;10:00;134;85;17;29
30.07.2020;11:00;128;154;21;17
30.07.2020;12:00;109;135;22;24
30.07.2020;13:00;143;139;35;20
30.07.2020;14:00;121;147;23;25
30.07.2020;15:00;145;140;38;34
30.07.2020;16:00;203;221;46;40
30.07.2020;17:00;172;206;62;38
30.07.2020;18:00;178;177;49;26
30.07.2020;19:00;145;116;28;23
30.07.2020;20:00;109;73;15;21
30.07.2020;21:00;73;45;18;12
30.07.2020;22:00;26;24;7;8
30.07.2020;23:00;3;8;5;2
31.07.2020;00:00;0;9;15;2
31.07.2020;01:00;1;0;3;1
31.07.2020;02:00;0;0;1;0
31.07.2020;03:00;0;0;0;0
31.07.2020;04:00;0;2;0;1
31.07.2020;05:00;21;8;7;8
31.07.2020;06:00;62;34;11;22
31.07.2020;07:00;88;57;20;44
31.07.2020;08:00;97;62;20;49
31.07.2020;09:00;61;77;13;32
31.07.2020;10:00;80;103;14;26
31.07.2020;11:00;105;125;25;26
31.07.2020;12:00;118;136;28;26
31.07.2020;13:00;92;137;45;18
31.07.2020;14:00;97;155;29;27
31.07.2020;15:00;112;183;26;25
31.07.2020;16:00;103;196;28;19
31.07.2020;17:00;101;127;34;22
31.07.2020;18:00;135;126;30;26
31.07.2020;19:00;112;95;17;9
31.07.2020;20:00;135;44;9;14
31.07.2020;21:00;89;56;3;17
31.07.2020;22:00;46;25;13;5
31.07.2020;23:00;9;11;7;8
01.08.2020;00:00;5;8;7;3
01.08.2020;01:00;3;3;3;2
01.08.2020;02:00;3;3;0;5
01.08.2020;03:00;6;2;0;1
01.08.2020;04:00;0;0;0;0
01.08.2020;05:00;4;2;3;0
01.08.2020;06:00;10;8;3;4
01.08.2020;07:00;16;25;2;8
01.08.2020;08:00;24;21;5;10
01.08.2020;09:00;55;77;3;11
01.08.2020;10:00;75;86;11;23
01.08.2020;11:00;87;88;13;14
01.08.2020;12:00;114;108;27;17
01.08.2020;13:00;85;91;20;20
01.08.2020;14:00;98;123;25;14
01.08.2020;15:00;103;140;17;37
01.08.2020;16:00;101;129;18;24
01.08.2020;17:00;120;84;31;19
01.08.2020;18:00;102;87;13;18
01.08.2020;19:00;80;56;20;9
01.08.2020;20:00;69;48;13;12
01.08.2020;21:00;57;20;4;16
01.08.2020;22:00;16;16;3;4
01.08.2020;23:00;12;1;3;5
02.08.2020;00:00;18;9;18;2
02.08.2020;01:00;0;7;0;1
02.08.2020;02:00;2;0;0;0
02.08.2020;03:00;0;0;0;0
02.08.2020;04:00;0;0;0;1
02.08.2020;05:00;3;0;0;0
02.08.2020;06:00;5;8;1;1
02.08.2020;07:00;9;19;2;7
02.08.2020;08:00;22;42;2;7
02.08.2020;09:00;56;93;5;14
02.08.2020;10:00;97;151;15;11
02.08.2020;11:00;140;176;12;29
02.08.2020;12:00;201;243;14;17
02.08.2020;13:00;263;203;13;19
02.08.2020;14:00;208;209;36;30
02.08.2020;15:00;201;158;20;29
02.08.2020;16:00;148;93;21;10
02.08.2020;17:00;153;109;26;12
02.08.2020;18:00;99;77;18;3
02.08.2020;19:00;85;52;13;13
02.08.2020;20:00;46;24;15;9
02.08.2020;21:00;26;12;8;10
02.08.2020;22:00;3;3;2;2
02.08.2020;23:00;5;1;9;2
03.08.2020;00:00;1;1;0;1
03.08.2020;01:00;0;0;0;0
03.08.2020;02:00;0;0;1;1
03.08.2020;03:00;0;0;0;0
03.08.2020;04:00;2;2;0;1
03.08.2020;05:00;18;4;6;6
03.08.2020;06:00;57;31;10;19
03.08.2020;07:00;104;52;15;62
03.08.2020;08:00;100;43;13;62
03.08.2020;09:00;65;52;18;35
03.08.2020;10:00;75;66;12;22
03.08.2020;11:00;142;81;20;27
03.08.2020;12:00;112;88;18;29
03.08.2020;13:00;74;107;20;18
03.08.2020;14:00;87;93;29;29
03.08.2020;15:00;116;116;44;33
03.08.2020;16:00;110;163;49;39
03.08.2020;17:00;144;168;66;32
03.08.2020;18:00;119;134;49;30
03.08.2020;19:00;73;106;21;18
03.08.2020;20:00;86;51;26;11
03.08.2020;21:00;34;19;16;5
03.08.2020;22:00;11;16;1;8
03.08.2020;23:00;4;0;1;6
04.08.2020;00:00;2;1;2;1
04.08.2020;01:00;0;0;0;1
04.08.2020;02:00;0;0;0;1
04.08.2020;03:00;0;1;0;0
04.08.2020;04:00;0;1;1;1
04.08.2020;05:00;30;4;3;7
04.08.2020;06:00;68;38;17;22
04.08.2020;07:00;121;55;19;69
04.08.2020;08:00;106;44;16;72
04.08.2020;09:00;91;62;15;33